FREGAT DEB

基本信息
目录编号:
46006
目录名称:
FREGAT DEB
国际标识:
2011-037HH
轨道中心:
EARTH
物体状态:
在轨
发射日期:
2011-07-18 UTC
轨道信息
数据来源: 国际轨道数据
星历时间: 2026-09-03T19:22:11+0800
半长轴: 7964.371km
偏心率: 0.157691
轨道倾角: 51.394°
近地点辐角: 116.920°
升交点赤经: 220.671°
平近点角: 260.136°
近地点: 330.324km
远地点: 2842.144km
周期: 117.893分钟
每日圈数: 12.214497
详细信息
发射场:
TTMTR
轨道高度:
LEO
数据来源:
AOE Integration Group
参考系:
TEME
时间系统:
UTC
历元类型:
SGP4
2D轨道图
3D轨道图
轨道高度分析图
轨道倾角分析图
轨道综合分析图
查看轨道综合分析图